CAPE
1021 1036 1871 1869 1705 1235 1042 994 1164 1069 591 309 299 362 571 379 258 238 223 511 635 784 467 143 4 3 1 0 12 52 5 0 11 0 0 0 2 14 28 38 31 8 34
1153 1697 2012 1821 1532 1280 996 788 1164 978 681 345 467 546 529 312 255 215 249 294 695 811 542 152 17 0 0 0 44 138 10 0 0 0 0 0 7 8 8 27 12 5 34
1383 1872 2053 1878 1625 1466 1097 1183 1366 1048 729 411 819 757 700 537 430 270 261 426 801 804 530 178 37 2 1 23 100 89 0 0 0 0 0 0 8 28 6 4 15 22 27
1475 1895 2026 1979 1873 1695 1351 1403 1243 1168 930 658 1145 1049 1161 855 551 233 255 590 861 787 498 143 34 0 0 18 56 162 0 0 0 0 0 0 0 30 29 22 38 39 22
1589 1663 1764 1907 1804 1660 1294 1123 924 946 1450 762 1400 1468 1262 1232 815 461 342 629 894 659 447 112 15 0 0 0 36 45 0 0 0 0 0 2 6 12 16 19 6 12 26
1584 1526 1710 1737 1565 1390 1213 1197 1383 1096 1705 1096 998 1528 1357 1312 1130 820 463 699 835 597 459 159 32 0 0 0 25 54 0 0 0 0 0 0 0 9 24 11 36 26 24
1548 1551 1827 1848 1859 1684 1576 1311 1646 1055 1869 1292 1313 1716 1435 1347 1429 1091 678 556 713 611 511 314 126 0 0 0 12 14 0 0 0 0 0 0 0 23 26 30 16 29 17
1394 1677 1921 2095 2006 2047 1875 1679 1588 1305 1805 1482 1609 1461 1346 1398 1370 1354 940 705 735 726 733 538 209 0 0 0 0 0 0 0 0 0 0 0 35 17 18 17 19 33 27
1382 1658 1913 2223 2076 2138 1913 1603 1586 1661 1748 1753 1481 1007 1108 1376 1226 1418 1218 898 620 921 730 767 445 27 0 0 0 0 0 0 0 0 0 0 6 4 15 9 25 20 33
1563 1706 1889 1984 2068 1994 1826 1704 1609 1978 1578 1891 1389 1039 929 869 1362 1152 1184 1247 806 991 848 674 850 424 0 0 0 0 0 0 0 0 0 0 4 2 12 17 18 12 25
1479 1706 1902 1889 1834 1616 1562 1651 1474 1581 1773 1768 1479 1278 1033 786 1314 1313 1142 944 1243 952 972 731 636 754 227 0 0 0 0 0 0 0 0 0 0 16 9 13 13 17 12
1163 1578 1800 1781 1635 1493 1563 1436 1354 1421 1687 1554 1364 1090 1018 790 674 1140 1296 1000 1042 1105 913 832 567 414 128 0 0 0 0 0 0 0 0 1 0 13 9 10 9 11 11
106 823 1591 1475 1414 1272 1241 1281 1394 1635 1532 1365 1206 1075 917 748 488 505 909 1169 810 749 742 675 438 212 236 0 19 66 0 0 0 0 0 0 11 9 8 8 9 8 10
0 0 689 1202 1227 1038 823 799 641 989 1060 987 933 917 571 169 22 20 302 878 818 760 476 554 271 35 0 20 43 28 0 0 2 8 8 1 30 19 5 7 7 8 5
0 0 0 734 731 823 777 756 849 902 931 798 530 417 269 40 76 78 163 512 733 546 513 439 405 125 0 0 0 18 0 1 1 20 17 17 35 36 9 8 10 9 11
0 0 0 0 13 506 577 775 852 904 873 752 595 521 486 377 375 373 651 707 760 495 370 347 400 359 72 0 0 0 0 1 3 9 14 28 29 51 28 17 4 7 7
0 0 0 0 0 0 18 527 819 865 735 744 759 723 766 622 573 670 792 843 772 589 354 430 420 316 220 37 0 22 0 2 0 5 38 32 29 32 47 33 3 6 7
0 0 0 0 0 0 0 0 104 943 839 565 694 814 1022 933 752 757 655 603 632 535 364 382 390 305 250 93 40 49 0 1 4 16 37 27 22 33 33 48 51 18 4
0 0 0 0 0 0 0 0 0 0 269 419 736 888 945 1016 831 720 450 509 541 527 294 348 318 320 185 102 74 3 0 18 20 20 44 18 35 31 38 21 52 27 4
0 0 0 0 0 0 0 0 0 0 0 0 87 322 866 879 930 673 517 580 552 529 414 370 353 249 158 78 0 0 1 38 41 53 43 40 59 35 55 50 29 13 13
0 0 0 0 0 0 0 0 0 0 0 0 159 499 695 944 653 656 520 467 448 400 394 309 225 205 76 26 0 0 2 4 29 26 20 42 60 69 60 60 37 33 37
0 0 0 0 0 0 0 0 0 1 11 0 11 187 800 654 571 459 473 415 385 272 244 209 160 85 37 23 0 3 10 10 0 8 23 46 39 46 49 74 62 41 33
0 0 0 0 0 0 0 0 0 0 0 48 19 108 156 409 399 226 393 445 356 16 52 108 91 92 116 16 0 1 0 0 4 10 33 24 26 20 26 30 17 9 7
0 0 0 0 0 0 0 0 0 0 0 5 136 353 198 336 240 162 199 26 0 0 103 116 130 67 40 63 0 0 0 0 2 4 11 4 3 3 1 0 1 0 1
0 0 0 0 0 0 0 0 0 1 1 1 228 771 425 349 169 142 30 0 0 34 134 75 85 78 53 45 8 0 0 0 0 0 2 2 0 1 1 1 1 1 0
0 0 0 0 0 0 0 0 0 4 58 132 333 740 711 220 140 116 24 131 236 170 131 65 137 134 82 21 28 0 0 0 0 0 0 5 0 1 2 2 1 1 1
CIN
-154 -142 -17 -7 -8 -40 -46 -30 -13 -7 -44 -80 -69 -31 -3 -23 -51 -51 -48 -2 -1 0 0 -13 -5 -0 -0 0 -0 -65 -0 0 -0 0 0 0 0 -0 -0 0 -1 -1 -0
-187 -84 -33 -28 -35 -34 -60 -79 -27 -37 -56 -112 -45 -10 -7 -29 -46 -63 -48 -35 0 0 -0 -23 -113 0 0 0 -59 -6 -3 0 0 0 0 0 -0 -0 -0 -0 -0 -1 -0
-138 -59 -21 -16 -12 -12 -31 -16 -4 -27 -58 -105 -29 -15 -7 -17 -14 -34 -32 -8 0 0 0 -17 -80 -17 -18 -80 -16 -19 0 0 0 0 0 0 -3 -0 -0 -0 -0 -0 -0
-119 -40 -15 -5 -6 -4 -17 -5 -10 -15 -28 -53 -6 -6 0 -5 -34 -71 -42 0 0 0 0 -20 -60 0 0 -34 -40 -9 0 0 0 0 0 0 0 -0 -0 -0 -0 -0 -0
-150 -121 -84 -49 -44 -45 -78 -82 -94 -68 -3 -53 -0 0 0 0 -5 -37 -41 -1 0 0 -2 -54 -113 0 0 0 -55 -25 0 0 0 0 0 -2 -4 -0 -0 -0 -1 -0 -0
-186 -179 -130 -107 -94 -93 -85 -68 -34 -51 -6 -36 -38 0 0 0 0 0 -16 0 -0 -5 -8 -40 -105 0 0 0 -80 -36 0 0 0 0 0 -0 -0 -1 -0 -0 -0 -0 -0
-163 -146 -88 -73 -58 -67 -61 -79 -35 -89 -2 -17 -9 0 -1 -0 0 0 -4 -10 -2 -2 -8 -19 -40 0 0 0 -79 -37 0 0 0 0 0 0 -0 -0 -0 0 -0 -3 -0
-161 -141 -97 -62 -46 -28 -20 -26 -28 -42 -2 -10 -2 -3 -3 0 -0 -0 -2 -0 -1 -0 -1 -3 -36 0 0 0 0 0 0 0 0 0 0 0 -51 -0 -1 -0 -0 -0 -0
-156 -137 -92 -50 -45 -23 -32 -47 -34 -11 -1 -0 -3 -30 -16 -1 -5 0 -4 -5 -8 0 -2 -2 -13 -110 0 0 0 -19 0 0 0 0 0 0 -1 -1 -0 0 -0 -1 -0
-122 -115 -97 -85 -61 -52 -46 -36 -33 -1 -15 -1 -7 -28 -41 -39 -1 -4 -1 -0 -7 0 0 -1 0 -9 0 0 0 0 0 0 0 0 0 0 -0 -0 0 -0 0 -0 -0
-82 -89 -98 -97 -97 -102 -91 -69 -63 -37 -5 -1 -3 -7 -29 -48 -2 -1 -4 -6 0 -1 -0 -1 -1 -5 -27 0 0 0 0 0 0 0 0 0 0 -0 -0 -0 -0 -0 -0
-66 -92 -106 -121 -130 -120 -93 -101 -101 -74 -16 -16 -29 -51 -37 -45 -56 -11 -7 -8 -3 -2 -6 -5 -22 -23 -17 0 0 0 0 0 0 0 0 -14 0 -0 -0 -0 0 -0 -0
-170 -109 -104 -122 -139 -135 -129 -119 -99 -62 -55 -66 -72 -58 -46 -49 -73 -66 -21 -5 -14 -11 -11 -18 -38 -56 -34 0 -52 -36 -4 0 0 0 0 0 -19 -0 0 -0 -0 -0 -0
0 0 -96 -98 -112 -127 -139 -144 -155 -119 -108 -119 -126 -95 -117 -185 -294 -265 -94 -28 -22 -17 -25 -23 -54 -103 0 -54 -63 -30 0 0 -92 -71 -55 -6 -26 -8 0 -0 -0 -0 -0
0 0 0 -119 -115 -111 -102 -113 -120 -123 -121 -132 -138 -147 -173 -241 -176 -182 -150 -58 -31 -24 -23 -30 -31 -70 0 0 0 -56 0 -69 -65 -76 -74 -47 -28 -16 -3 0 0 -0 -0
0 0 0 0 -42 -111 -96 -65 -77 -99 -97 -114 -118 -114 -118 -103 -97 -78 -56 -62 -47 -41 -41 -38 -38 -45 -59 0 0 0 -14 -64 -104 -86 -78 -57 -24 -13 -0 -0 -0 -0 -0
0 0 0 0 0 0 -21 -70 -59 -49 -54 -57 -65 -76 -64 -76 -73 -46 -43 -44 -42 -43 -59 -46 -45 -61 -61 -68 0 -49 0 -96 -7 -92 -84 -64 -37 -26 -10 -0 0 -0 -0
0 0 0 0 0 0 0 0 -158 -29 -18 -91 -34 -58 -40 -43 -58 -43 -32 -30 -35 -44 -47 -48 -47 -53 -63 -84 -51 -44 0 -71 -68 -94 -75 -62 -54 -39 -19 -5 -1 -4 -0
0 0 0 0 0 0 0 0 0 0 -102 -76 -39 -37 -54 -45 -32 -45 -41 -32 -47 -52 -56 -54 -69 -61 -74 -78 -39 -87 0 -59 -89 -59 -60 -49 -48 -43 -25 -10 -5 -2 -0
0 0 0 0 0 0 0 0 0 0 0 0 -194 -168 -69 -71 -54 -40 -41 -44 -57 -53 -52 -50 -44 -69 -69 -54 -7 0 -58 -47 -53 -49 -40 -37 -37 -41 -26 -12 -10 -3 -1
0 0 0 0 0 0 0 0 0 0 0 0 -231 -168 -136 -87 -106 -67 -48 -42 -63 -37 -64 -50 -62 -61 -54 -69 0 0 -38 -67 -53 -43 -39 -31 -28 -28 -21 -11 -10 -12 -9
0 0 0 0 0 0 0 0 0 0 -362 0 -179 -251 -155 -166 -129 -90 -96 -99 -73 -41 -58 -51 -78 -84 -107 -79 0 -65 -29 -19 -0 -31 -28 -20 -21 -20 -22 -15 -17 -14 -15
0 0 0 0 0 0 0 0 0 0 0 -307 -298 -250 -296 -217 -191 -178 -146 -119 -86 -143 -66 -26 -149 -127 -97 -133 0 -9 0 0 -7 -20 -10 -14 -14 -20 -23 -18 -12 -17 -25
0 0 0 0 0 0 0 0 -0 0 0 -174 -219 -182 -257 -221 -231 -218 -201 -208 0 0 -42 -41 -102 -117 -79 -60 0 0 0 0 -7 -10 -4 -8 -34 -29 -10 -7 -1 0 -15
0 0 0 0 0 0 0 0 0 0 -13 -8 -211 -84 -181 -187 -237 -237 -232 -15 -10 -100 -48 -47 -86 -76 -62 -48 -58 0 0 0 0 0 -0 -2 0 0 0 0 0 0 0
0 0 0 0 0 0 0 0 0 -200 -200 -192 -141 -47 -65 -224 -243 -215 -230 -168 -62 -49 -43 -29 -74 -61 -54 -75 -69 -33 0 0 0 0 -0 -13 0 0 0 0 0 0 0
Wind_Speed
12 14 16 15 15 15 15 14 14 14 15 15 15 15 15 15 16 16 17 17 18 18 18 19 19 20 20 21 22 24 25 26 24 26 27 28 28 27 28 29 30 30 32
11 12 13 13 13 13 13 13 13 13 13 14 14 14 14 14 15 16 16 16 17 17 17 18 19 19 19 20 22 24 24 26 27 26 27 28 28 28 28 29 30 31 32
10 9 10 10 10 10 11 11 11 12 12 12 12 12 12 13 14 15 15 15 15 16 16 17 18 19 19 20 22 24 23 26 27 26 27 27 28 29 30 29 30 31 31
10 7 7 7 7 8 8 9 9 10 10 11 11 11 11 12 13 14 14 14 14 15 16 16 17 18 18 19 21 23 23 25 27 27 27 28 28 29 30 30 31 32 32
11 9 6 6 6 6 6 6 7 8 9 10 11 11 11 12 12 13 13 13 14 14 14 15 16 17 17 18 20 22 21 24 25 26 27 28 28 30 31 31 32 31 32
10 9 9 8 6 5 5 6 6 7 8 8 9 9 10 10 11 12 12 12 12 13 13 14 15 16 16 18 20 20 19 23 24 25 27 28 29 30 30 31 31 32 32
10 9 8 7 6 5 5 5 5 5 6 6 7 7 8 8 9 10 11 11 11 11 12 13 13 15 15 17 19 19 19 21 23 24 27 27 28 29 30 30 31 31 32
9 8 7 7 6 4 4 4 4 4 4 4 5 5 5 6 6 7 8 9 10 11 10 11 12 13 14 15 17 18 17 19 22 24 26 27 27 29 29 30 31 31 32
5 5 4 4 3 3 2 2 2 2 2 2 3 4 5 5 5 5 6 7 8 9 10 10 11 12 13 13 15 17 15 18 20 22 24 25 27 28 29 29 30 31 32
4 4 3 3 2 2 2 1 2 2 1 1 2 3 4 6 4 5 6 7 8 9 10 11 10 11 12 12 14 16 14 16 19 21 23 24 26 26 28 28 29 30 30
7 4 4 3 3 3 3 3 3 2 2 3 3 5 6 7 8 10 8 7 7 7 7 8 10 9 10 11 12 13 11 14 16 20 22 23 25 25 26 27 28 29 30
10 7 6 5 6 6 7 6 5 5 5 5 5 6 7 8 9 9 9 8 7 7 7 7 8 9 11 10 11 12 10 11 14 17 20 22 23 23 25 26 27 28 29
18 16 11 9 9 8 9 9 9 8 8 9 8 8 9 11 12 12 12 11 10 8 7 8 10 9 10 9 10 13 10 9 11 15 18 20 21 21 23 24 25 26 28
22 25 17 16 14 12 13 12 11 11 10 10 10 10 10 11 11 11 13 12 12 11 9 8 8 10 10 10 13 15 7 6 10 12 16 18 19 19 21 22 23 25 27
23 26 26 20 19 19 15 14 14 12 12 13 13 10 10 11 12 12 13 14 13 12 11 11 10 11 11 12 18 10 3 5 7 10 15 17 17 18 19 20 21 23 25
24 26 26 25 25 22 20 18 17 16 15 15 14 10 7 7 7 8 12 8 9 11 12 13 13 13 11 13 12 13 4 2 5 9 13 15 16 16 16 18 19 21 23
24 26 27 27 26 27 28 28 23 20 20 20 19 10 9 9 9 8 8 11 11 10 12 11 12 14 13 12 11 12 5 4 7 10 12 14 14 15 15 16 17 19 21
25 28 29 28 29 30 30 30 28 23 22 20 14 12 12 11 11 9 11 12 13 15 14 12 13 13 14 13 13 11 7 6 8 10 11 13 13 14 14 14 14 17 19
27 28 31 31 33 33 32 31 30 28 24 27 25 17 15 16 13 14 14 16 13 12 15 14 15 13 13 14 12 12 14 3 9 10 12 12 13 12 12 12 13 14 17
27 28 30 31 32 31 31 32 32 31 28 26 23 19 18 19 14 17 17 14 13 11 12 14 13 12 13 8 9 9 11 7 6 10 12 14 14 11 11 11 12 13 14
29 31 32 32 31 31 31 34 33 35 35 35 32 29 30 26 22 22 22 19 15 15 13 16 16 11 8 6 2 7 11 11 12 13 14 15 13 10 10 10 11 11 12
31 32 33 30 30 31 31 31 30 32 33 35 38 36 31 24 21 22 23 24 22 21 18 19 18 14 12 6 8 9 12 15 15 16 16 15 14 13 11 11 11 11 11
33 34 33 32 32 32 32 31 33 32 32 33 36 40 33 28 27 25 21 21 18 17 12 27 14 11 11 10 11 12 14 16 12 16 15 14 14 14 15 13 12 12 12
33 34 34 35 34 33 33 33 33 34 38 36 38 38 32 27 26 22 17 16 10 19 13 20 15 10 9 9 11 12 13 11 12 12 13 15 14 15 16 16 15 14 15
34 36 36 36 35 35 34 34 34 35 36 36 37 38 31 24 23 20 19 20 19 11 9 15 12 10 6 5 7 9 10 10 9 9 9 10 13 16 16 16 16 17 18
36 38 38 37 37 36 35 35 35 35 36 35 35 35 29 25 22 21 21 21 16 12 10 11 13 10 5 5 4 4 6 7 7 5 7 8 10 14 16 17 18 19 20
Wind_Direction
94 102 111 101 96 89 80 70 67 66 57 46 49 46 43 39 38 36 32 28 27 33 34 32 29 27 26 26 22 15 18 19 21 12 11 9 5 4 2 2 2 1 358
91 102 104 99 91 82 74 62 62 61 51 46 49 47 42 35 32 31 33 33 33 35 32 30 27 25 25 25 20 14 15 14 13 15 12 11 9 6 2 1 360 2 359
79 85 92 86 75 71 63 54 55 50 48 53 53 48 48 44 39 32 30 29 33 35 33 29 26 24 26 24 16 13 21 15 14 12 9 9 11 10 7 5 3 2 1
66 66 75 73 64 58 54 52 43 39 51 57 59 60 59 51 42 38 38 32 36 32 28 26 27 26 27 24 18 16 22 19 16 15 13 10 10 10 10 10 5 2 1
80 87 89 90 81 73 61 62 57 67 68 58 57 65 59 57 53 48 48 44 41 39 34 30 29 24 23 21 17 18 24 20 18 16 12 10 13 10 9 8 7 5 3
89 95 109 113 104 83 74 67 70 81 77 73 66 67 59 57 55 51 48 42 46 44 36 29 26 23 18 16 13 16 27 21 18 15 9 7 9 9 9 8 8 7 3
84 89 98 110 107 97 90 89 81 77 87 64 54 56 49 51 51 44 37 41 37 31 27 26 22 18 15 12 13 27 25 22 20 15 10 9 9 11 12 11 9 7 7
81 82 95 109 113 105 97 70 64 70 76 65 63 55 52 40 42 44 34 28 24 23 29 26 20 14 10 8 13 17 26 21 20 15 12 11 14 12 11 10 9 10 8
55 56 64 86 96 91 105 66 60 87 77 58 53 39 25 17 16 22 26 20 18 11 8 16 16 13 9 10 11 11 24 20 18 16 12 11 10 10 11 11 10 8 9
21 17 19 17 20 13 355 324 334 341 337 51 14 4 358 347 348 351 356 354 355 352 351 352 357 2 4 3 4 9 26 22 18 17 14 11 10 10 13 14 12 11 10
332 334 339 336 326 319 319 312 303 293 303 309 319 329 331 332 329 326 328 332 339 342 348 350 349 358 2 0 2 12 25 18 17 15 16 15 11 13 12 14 15 13 12
311 305 305 312 317 321 317 306 291 291 295 294 294 300 309 312 311 309 310 311 316 324 331 339 345 346 348 352 356 1 14 19 16 17 17 16 15 16 11 16 17 17 15
318 312 295 292 300 304 310 311 303 292 285 286 286 289 296 301 301 301 301 302 303 308 317 324 328 335 336 338 345 347 2 19 18 17 21 20 16 18 18 18 19 19 18
328 326 301 294 293 293 300 304 302 295 287 285 286 285 288 291 293 291 293 293 295 297 304 309 317 323 325 326 328 333 5 30 11 16 18 20 19 16 18 19 20 20 22
329 329 328 309 299 299 293 295 296 292 288 286 292 288 286 290 289 295 290 292 290 296 299 303 306 311 314 318 318 331 12 20 11 14 13 17 16 16 19 23 25 24 26
328 329 331 329 314 303 295 289 289 293 289 289 289 281 265 270 273 278 295 290 283 290 297 299 300 304 309 314 321 325 334 354 9 14 11 15 14 18 20 23 24 25 25
325 326 325 325 323 315 306 299 294 294 298 294 292 273 274 259 256 255 266 287 289 284 293 297 295 299 300 303 309 316 334 335 326 354 4 9 11 11 16 20 26 26 25
324 323 324 323 319 315 312 307 303 297 297 292 283 282 266 256 266 255 279 289 291 287 288 291 293 299 297 295 295 309 325 313 324 342 1 5 5 6 14 22 27 28 27
323 321 319 320 318 312 309 308 305 302 296 285 292 284 275 276 272 274 281 285 285 284 283 284 290 292 292 299 294 304 287 1 317 341 352 359 357 4 12 19 25 25 22
323 324 322 321 321 320 315 309 304 301 300 298 291 283 280 280 265 275 282 276 283 282 281 280 284 285 292 296 299 301 297 341 355 347 345 347 351 360 10 16 14 15 22
322 322 324 322 323 322 320 314 306 301 297 292 293 286 282 283 283 281 280 282 292 278 279 275 280 276 271 287 304 311 312 324 334 338 342 342 350 6 9 15 14 18 21
322 322 324 326 327 326 325 321 318 307 301 295 284 283 280 278 276 275 280 285 291 285 291 274 267 268 269 231 283 294 298 309 320 329 337 344 348 356 6 10 8 13 21
321 322 324 323 323 323 320 320 317 313 304 297 288 275 279 273 273 278 281 286 285 280 278 271 246 236 246 245 274 294 297 299 313 323 334 347 352 352 357 2 5 9 15
322 323 322 320 319 318 317 314 315 313 300 295 287 277 277 272 269 274 280 281 265 288 244 255 240 238 238 248 281 301 307 314 309 318 337 345 353 353 355 0 6 1 360
320 319 318 317 313 311 316 315 308 307 306 297 287 279 275 274 270 270 273 277 283 261 218 243 233 231 216 240 282 295 313 318 327 322 333 345 355 353 358 359 350 347 347
314 311 312 311 311 307 313 313 309 307 307 302 292 282 277 271 270 272 277 279 271 255 223 235 231 230 224 266 286 287 298 306 320 328 338 344 355 352 357 342 336 338 339